Waarnemingen

Advertentie
Mijn weer
Lyon/Satolas, Frankrijk (7481): temperatuur & dauwpunt: 17.07.2019 12:00:00 - 23.07.2019 12:00:00 (CEST)Lyon/Satolas, Frankrijk (7481): temperatuur 5cm: 17.07.2019 12:00:00 - 23.07.2019 12:00:00 (CEST)Lyon/Satolas, Frankrijk (7481): temperatuur -20cm & temperatuur -100cm: 17.07.2019 12:00:00 - 23.07.2019 12:00:00 (CEST)Lyon/Satolas, Frankrijk (7481): windsnelheid & windstoten: 17.07.2019 12:00:00 - 23.07.2019 12:00:00 (CEST)Lyon/Satolas, Frankrijk (7481): windrichting: 17.07.2019 12:00:00 - 23.07.2019 12:00:00 (CEST)Lyon/Satolas, Frankrijk (7481): luchtdruk: 17.07.2019 12:00:00 - 23.07.2019 12:00:00 (CEST)Lyon/Satolas, Frankrijk (7481): zicht: 17.07.2019 12:00:00 - 23.07.2019 12:00:00 (CEST)Lyon/Satolas, Frankrijk (7481): neerslag: 17.07.2019 12:00:00 - 23.07.2019 12:00:00 (CEST)
Datum & Tijd tt [°C] td [°C] tt 5cm [°C] tt -20cm [°C] tt -100cm [°C] ff [km/u] ff [kn] fx [km/u] fx [kn] dd ppp [hPa] vv [km] rr [mm]
23.07.2019 12:00:00 - - - - - - - - - - - - -
23.07.2019 11:00:00 30,6 15,5 35,2 27,8 23,6 8 5 20 11 O 1017,7 30 0,0
23.07.2019 10:00:00 28,3 16,6 32,8 27,7 23,5 5 3 14 8 ZO 1018,2 30 0,0
23.07.2019 09:00:00 25,8 16,9 30,8 27,9 23,6 5 3 10 5 W 1018,8 30 0,0
23.07.2019 08:00:00 24,4 16,4 24,6 28,1 23,5 5 3 8 4 ZZO 1018,9 30 0,0
23.07.2019 07:00:00 22,5 16,8 18,4 28,4 23,5 3 1 17 9 Z 1019,2 30 0,0
23.07.2019 06:00:00 22,2 16,7 20,0 28,7 23,5 5 3 12 6 ZO 1019,3 30 0,0
23.07.2019 05:00:00 22,8 16,8 21,4 29,0 23,5 10 5 16 9 ZO 1019,4 30 0,0
23.07.2019 04:00:00 23,2 16,7 19,1 29,4 23,5 12 6 17 9 ZZO 1019,3 30 0,0
23.07.2019 03:00:00 23,8 17,3 19,0 29,8 23,5 2 1 5 3 O 1019,2 30 0,0
23.07.2019 02:00:00 24,8 16,8 23,0 30,2 23,5 4 2 11 6 ZZW 1019,3 35 0,0
23.07.2019 01:00:00 25,1 17,0 21,3 30,6 23,5 9 5 10 6 ZW 1019,4 40 0,0
23.07.2019 00:00:00 26,0 16,8 21,3 30,9 23,4 5 3 13 7 NNW 1019,2 40 0,0
22.07.2019 23:00:00 26,9 16,8 24,6 31,3 23,5 7 4 21 11 NNO 1019,2 40 0,0
22.07.2019 22:00:00 28,8 16,4 26,6 31,6 23,5 10 6 16 9 NNO 1018,8 40 0,0
22.07.2019 21:00:00 30,8 16,4 30,0 31,7 23,5 10 5 20 11 NNO 1018,4 40 0,0
22.07.2019 20:00:00 32,8 14,4 35,3 31,7 23,5 12 7 24 13 N 1018,2 40 0,0
22.07.2019 19:00:00 33,4 14,0 38,0 31,4 23,4 10 5 25 13 NNW 1018,3 30 0,0
22.07.2019 18:00:00 33,8 14,3 41,5 30,9 23,4 11 6 34 18 NW 1018,6 30 0,0
22.07.2019 17:00:00 33,4 14,5 41,2 30,4 23,5 12 6 24 13 NNO 1019,1 30 0,0
22.07.2019 16:00:00 33,2 14,3 41,0 29,6 23,4 9 5 24 13 N 1019,5 30 0,0
22.07.2019 15:00:00 32,6 14,2 40,4 28,9 23,4 9 5 29 16 NNW 1020,1 30 0,0
22.07.2019 14:00:00 31,8 14,4 39,5 28,2 23,4 16 9 28 15 N 1020,6 30 0,0
22.07.2019 13:00:00 30,2 13,5 38,7 27,6 23,4 12 7 30 16 N 1021,5 30 0,0
22.07.2019 12:00:00 28,7 15,2 35,7 27,2 23,4 11 6 23 12 NNW 1022,0 30 0,0
22.07.2019 11:00:00 26,5 15,5 30,4 26,9 23,4 9 5 18 10 NW 1022,4 30 0,0
22.07.2019 10:00:00 24,6 15,0 28,5 26,9 23,4 9 5 18 10 NW 1022,7 30 0,0
22.07.2019 09:00:00 22,8 14,9 25,2 27,0 23,4 9 5 15 8 NW 1022,9 30 0,0
22.07.2019 08:00:00 21,7 14,6 20,8 27,3 23,4 8 5 14 7 NNW 1022,6 30 0,0
22.07.2019 07:00:00 21,0 15,3 18,9 27,6 23,4 4 2 14 8 N 1022,3 30 0,0
22.07.2019 06:00:00 21,3 16,5 20,1 27,8 23,3 4 2 18 10 NNW 1022,5 30 0,0
22.07.2019 05:00:00 22,2 15,5 19,4 28,1 23,4 5 3 11 6 NW 1022,1 30 0,0
22.07.2019 04:00:00 22,4 16,7 19,2 28,5 23,4 3 2 6 3 WNW 1021,8 30 0,0
22.07.2019 03:00:00 23,2 16,5 19,6 28,8 23,4 0 0 8 4 N 1021,4 30 0,0
22.07.2019 02:00:00 23,7 16,5 20,1 29,1 23,3 5 3 8 5 NW 1021,3 30 0,0
22.07.2019 01:00:00 24,4 16,9 21,1 29,5 23,3 7 4 16 9 NNO 1021,1 30 0,0
22.07.2019 00:00:00 25,3 17,0 23,5 29,8 23,3 9 5 13 7 NNO 1020,9 40 0,0
21.07.2019 23:00:00 26,5 16,7 24,8 30,1 23,3 5 3 11 6 N 1020,8 40 0,0
21.07.2019 22:00:00 28,0 16,6 26,5 30,3 23,3 6 4 15 8 NNO 1020,1 40 0,0
21.07.2019 21:00:00 29,0 16,5 28,7 30,4 23,3 11 6 22 12 NNO 1019,2 40 0,0
21.07.2019 20:00:00 30,7 15,5 32,8 30,4 23,3 15 8 25 14 NNO 1018,9 35 0,0
21.07.2019 19:00:00 31,2 16,0 35,2 30,1 23,3 11 6 30 16 NNO 1018,8 40 0,0
21.07.2019 18:00:00 31,5 15,9 38,4 29,7 23,3 16 9 30 16 NNO 1018,6 40 0,0
21.07.2019 17:00:00 31,5 15,5 39,9 29,1 23,3 10 6 26 14 NNW 1019,2 30 0,0
21.07.2019 16:00:00 30,9 15,7 38,8 28,4 23,3 10 5 29 15 NNW 1019,6 30 0,0
21.07.2019 15:00:00 30,4 16,8 37,6 27,8 23,4 10 5 29 16 N 1019,9 30 0,0
21.07.2019 14:00:00 29,2 17,7 37,2 27,2 23,3 10 6 30 16 NW 1020,6 30 0,0
21.07.2019 13:00:00 28,3 17,8 35,5 26,7 23,3 11 6 23 12 N 1020,9 30 0,0
21.07.2019 12:00:00 27,1 18,1 34,6 26,4 23,3 8 4 29 16 NNO 1021,2 30 0,0
21.07.2019 11:00:00 25,8 16,9 30,9 26,3 23,3 10 6 24 13 N 1021,3 30 0,0
21.07.2019 10:00:00 25,1 18,1 29,2 26,3 23,3 10 6 17 9 N 1021,2 30 0,0
21.07.2019 09:00:00 23,1 19,3 24,0 26,4 23,3 8 4 14 8 WNW 1020,9 30 0,0
21.07.2019 08:00:00 21,7 18,5 22,3 26,6 23,3 6 3 7 4 ZZW 1020,8 20 0,0
21.07.2019 07:00:00 20,6 18,5 19,3 26,8 23,3 4 2 6 3 O 1020,5 10 0,0
21.07.2019 06:00:00 20,3 19,0 19,7 27,0 23,3 7 4 11 6 ZZO 1020,1 10 0,0
21.07.2019 05:00:00 20,5 19,0 19,9 27,3 23,3 6 3 13 7 O 1019,7 10 0,0
21.07.2019 04:00:00 20,2 19,0 19,6 27,5 23,3 6 3 12 7 ZO 1019,7 10 0,0
21.07.2019 03:00:00 21,4 18,8 19,4 27,8 23,3 5 3 14 8 NNO 1019,6 11 1,2
21.07.2019 02:00:00 21,5 17,7 20,3 28,0 23,3 5 3 16 8 ZZO 1019,6 25 0,0
21.07.2019 01:00:00 21,5 17,5 20,9 28,3 23,3 10 5 46 25 N 1019,2 25 0,0
21.07.2019 00:00:00 23,2 17,9 22,3 28,5 23,2 6 3 73 40 ZO 1018,0 25 0,0
20.07.2019 23:00:00 26,4 17,2 21,3 28,8 23,3 11 6 26 14 ZO 1017,0 25 0,0
20.07.2019 22:00:00 25,3 17,7 21,8 28,9 23,3 15 8 40 22 NW 1016,4 30 0,0
20.07.2019 21:00:00 28,3 14,9 27,7 29,0 23,3 16 9 34 18 Z 1014,8 40 0,0
20.07.2019 20:00:00 29,0 14,4 28,7 29,0 23,3 15 8 33 18 Z 1014,5 40 0,0
20.07.2019 19:00:00 29,6 13,8 30,2 28,9 23,2 23 12 45 24 Z 1014,3 29 0,0
20.07.2019 18:00:00 30,8 12,2 32,6 28,6 23,2 24 13 51 27 Z 1014,3 40 0,0
20.07.2019 17:00:00 31,1 8,7 32,6 28,3 23,2 28 15 57 31 ZZW 1014,6 40 0,0
20.07.2019 16:00:00 30,5 9,4 31,6 28,1 23,2 21 11 55 30 Z 1014,7 40 0,0
20.07.2019 15:00:00 29,5 10,1 32,0 27,7 23,2 31 17 54 29 ZZW 1014,8 40 0,0
20.07.2019 14:00:00 28,9 11,0 29,0 27,5 23,2 28 15 42 23 Z 1015,5 20 0,0
20.07.2019 13:00:00 28,2 11,7 29,8 27,1 23,2 28 15 47 26 Z 1015,8 40 0,0
20.07.2019 12:00:00 30,0 11,5 34,3 26,8 23,2 29 16 46 25 ZZW 1015,8 40 0,0
20.07.2019 11:00:00 28,3 10,5 31,7 26,6 23,2 31 17 53 29 Z 1015,5 40 0,0
20.07.2019 10:00:00 26,6 10,7 28,0 26,7 23,2 25 14 49 27 Z 1015,9 50 0,0
20.07.2019 09:00:00 24,7 12,6 27,0 26,8 23,2 22 12 44 24 Z 1015,0 50 0,0
20.07.2019 08:00:00 23,4 13,8 22,6 27,0 23,1 14 8 34 18 ZO 1014,5 50 0,0
20.07.2019 07:00:00 22,1 14,0 21,2 27,3 23,1 18 10 30 16 ZZO 1014,1 50 0,0
20.07.2019 06:00:00 22,4 14,0 21,0 27,6 23,2 17 9 32 18 ZZO 1014,1 50 0,0
20.07.2019 05:00:00 22,3 12,3 20,9 27,9 23,1 13 7 33 18 ZO 1014,0 50 0,0
20.07.2019 04:00:00 22,9 11,3 20,0 28,3 23,1 21 11 37 20 ZZO 1013,7 50 0,0
20.07.2019 03:00:00 23,5 10,2 20,5 28,7 23,1 19 10 33 18 ZZO 1013,4 50 0,0
20.07.2019 02:00:00 24,8 11,0 22,4 29,0 23,1 13 7 40 22 ZO 1013,1 50 0,0
20.07.2019 01:00:00 23,7 12,7 22,4 29,4 23,1 14 8 25 13 ZZO 1013,5 50 0,0
20.07.2019 00:00:00 24,6 12,5 23,3 29,8 23,1 18 10 26 14 ZO 1013,5 50 0,0
19.07.2019 23:00:00 25,9 11,6 23,8 30,1 23,1 15 8 40 21 ZO 1013,3 50 0,0
19.07.2019 22:00:00 26,4 12,5 24,3 30,4 23,1 10 5 23 12 O 1013,0 60 0,0
19.07.2019 21:00:00 28,2 11,7 27,7 30,6 23,1 9 5 20 11 O 1012,7 60 0,0
19.07.2019 20:00:00 29,5 10,1 31,5 30,5 23,1 11 6 26 14 NO 1012,7 60 0,0
19.07.2019 19:00:00 30,1 10,6 33,8 30,3 23,1 5 3 22 12 O 1012,8 60 0,0
19.07.2019 18:00:00 30,3 9,8 37,5 29,7 23,1 8 4 21 12 Z 1013,1 60 0,0
19.07.2019 17:00:00 29,8 10,8 38,5 29,1 23,1 6 3 24 13 W 1013,5 60 0,0
19.07.2019 16:00:00 29,6 10,2 37,0 28,3 23,1 8 5 20 11 W 1014,1 60 0,0
19.07.2019 15:00:00 28,2 11,3 36,1 27,5 23,1 7 4 22 12 WNW 1014,7 60 0,0
19.07.2019 14:00:00 27,1 11,6 35,4 26,8 23,1 11 6 31 17 NNW 1015,5 50 0,0
19.07.2019 13:00:00 26,2 11,9 35,0 26,2 23,1 8 4 24 13 N 1016,2 41 0,0
19.07.2019 12:00:00 25,0 12,9 33,8 25,8 23,1 10 5 28 15 NNO 1016,6 50 0,0
19.07.2019 11:00:00 23,8 13,1 30,3 25,5 23,1 14 8 27 14 N 1017,1 50 0,0
19.07.2019 10:00:00 22,5 12,4 30,8 25,4 23,1 9 5 20 11 N 1017,4 50 0,0
19.07.2019 09:00:00 21,6 12,2 27,3 25,5 23,1 10 5 18 10 NNO 1017,5 50 0,0
19.07.2019 08:00:00 20,2 12,4 19,0 25,7 23,1 9 5 12 7 N 1017,4 50 0,0
19.07.2019 07:00:00 17,6 11,4 12,2 26,0 23,1 2 1 5 3 NW 1017,4 40 0,0
19.07.2019 06:00:00 17,8 10,7 12,5 26,3 23,0 5 3 9 5 NO 1017,2 40 0,0
19.07.2019 05:00:00 18,1 10,7 13,4 26,7 23,1 7 4 9 5 OZO 1017,1 40 0,0
19.07.2019 04:00:00 18,1 10,5 11,8 27,1 23,0 8 5 10 5 O 1016,9 40 0,0
19.07.2019 03:00:00 18,6 10,2 12,7 27,5 23,1 5 3 16 9 WNW 1016,8 34 0,0
19.07.2019 02:00:00 19,2 10,2 12,9 27,9 23,1 4 2 10 6 W 1016,5 10 0,0
19.07.2019 01:00:00 19,7 10,4 15,0 28,2 23,0 11 6 19 11 NNW 1016,2 40 0,0
19.07.2019 00:00:00 20,8 10,3 18,0 28,7 23,0 10 5 22 12 NNW 1015,7 38 0,0
18.07.2019 23:00:00 21,9 10,7 18,7 29,0 23,1 11 6 22 12 N 1015,2 40 0,0
18.07.2019 22:00:00 23,3 10,7 20,9 29,3 23,0 14 7 22 12 NNO 1014,7 40 0,0
18.07.2019 21:00:00 25,6 8,6 25,1 29,5 23,0 13 7 31 17 N 1013,5 40 0,0
18.07.2019 20:00:00 27,1 8,5 28,2 29,6 23,0 21 11 39 21 N 1012,8 40 0,0
18.07.2019 19:00:00 28,2 9,5 31,9 29,5 23,0 23 12 33 18 N 1012,2 40 0,0
18.07.2019 18:00:00 28,5 10,2 33,1 29,2 23,0 24 13 36 19 N 1012,0 40 0,0
18.07.2019 17:00:00 29,3 8,4 33,5 28,8 23,0 9 5 32 18 N 1011,9 40 0,0
18.07.2019 16:00:00 29,1 9,8 36,5 28,3 23,0 14 8 28 15 NNO 1012,2 40 0,0
18.07.2019 15:00:00 28,7 8,9 35,9 27,7 23,0 13 7 29 16 N 1012,2 40 0,0
18.07.2019 14:00:00 28,4 8,1 37,7 27,0 23,0 13 7 32 17 NW 1012,6 40 0,0
18.07.2019 13:00:00 27,6 9,4 37,1 26,4 23,0 12 7 25 14 NNW 1012,9 40 0,0
18.07.2019 12:00:00 26,3 10,0 35,9 26,0 23,0 13 7 22 12 NNW 1013,5 40 0,0
18.07.2019 11:00:00 24,6 10,5 32,2 25,7 23,0 11 6 23 12 WNW 1013,6 40 0,0
18.07.2019 10:00:00 22,8 10,6 28,5 25,7 23,0 9 5 19 10 N 1013,9 40 0,0
18.07.2019 09:00:00 21,7 9,9 27,2 25,8 23,0 10 5 18 10 N 1013,9 50 0,0
18.07.2019 08:00:00 20,1 9,6 19,1 25,9 22,9 2 1 16 8 N 1013,7 50 0,0
18.07.2019 07:00:00 17,9 10,0 12,1 26,3 22,9 7 4 11 6 OZO 1013,6 50 0,0
18.07.2019 06:00:00 17,2 9,1 11,4 26,7 22,9 4 2 10 5 ZW 1013,4 60 0,0
18.07.2019 05:00:00 17,7 9,3 11,6 27,1 22,9 2 1 5 3 ZW 1012,9 60 0,0
18.07.2019 04:00:00 18,9 9,9 12,6 27,4 22,9 0 0 8 4 N 1012,7 60 0,0
18.07.2019 03:00:00 19,5 8,5 13,2 27,8 22,9 3 2 5 3 W 1012,8 60 0,0
18.07.2019 02:00:00 21,3 9,8 15,7 28,2 22,9 2 1 9 5 W 1012,8 60 0,0
18.07.2019 01:00:00 22,4 7,8 16,3 28,6 22,9 5 3 8 4 ZZW 1012,7 60 0,0
18.07.2019 00:00:00 22,1 8,6 16,2 29,0 22,9 2 1 13 7 O 1012,4 60 0,0
17.07.2019 23:00:00 23,6 8,4 21,4 29,4 22,9 10 5 15 8 N 1012,1 60 0,0
17.07.2019 22:00:00 24,6 9,7 22,2 29,7 22,9 11 6 17 9 N 1011,8 50 0,0
17.07.2019 21:00:00 27,3 9,2 25,6 30,0 22,9 8 4 21 11 NO 1010,9 50 0,0
17.07.2019 20:00:00 28,7 8,4 30,7 30,0 22,9 15 8 32 17 NO 1010,7 50 0,0
17.07.2019 19:00:00 29,3 8,4 33,5 29,8 22,9 13 7 27 15 NNO 1010,6 50 0,0
17.07.2019 18:00:00 29,7 8,1 37,2 29,4 22,9 15 8 31 17 N 1010,9 50 0,0
17.07.2019 17:00:00 29,7 8,1 38,9 28,7 22,9 18 10 32 17 N 1011,4 50 0,0
17.07.2019 16:00:00 29,6 7,5 39,4 27,9 22,9 17 9 32 18 N 1011,8 50 0,0
17.07.2019 15:00:00 29,0 7,5 37,8 27,1 22,9 11 6 29 16 N 1012,4 50 0,0
17.07.2019 14:00:00 28,0 7,3 36,9 26,4 22,9 9 5 28 15 N 1012,9 50 0,0
17.07.2019 13:00:00 26,8 10,1 34,9 25,7 22,9 11 6 25 14 N 1013,6 50 0,0
17.07.2019 12:00:00 24,9 10,7 34,2 25,2 22,9 9 5 24 13 N 1014,1 50 0,0

tt = temperatuur
td = dauwpunt
tt 5cm = temperatuur 5cm
tt -20cm = temperatuur -20cm
tt -100cm = temperatuur -100cm
ff = windsnelheid
fx = windstoten
dd = windrichting
ppp = luchtdruk
vv = zicht
rr = neerslag

Weerstations in de omgeving